Location: Sternwarte ZA, Rosenfeld-Brittheim
(48.2889°N, 8.6789°E)
Time: 21:29:47
(UTC+02:00)

ISS - Pass Details

Date: 24 May 2017
Orbit: 402 x 409 km, 51.6° (Epoch: 25 May)

Event Time Altitude Azimuth Distance (km) Brightness Sun altitude
Rises 03:32:31 0° 291° (WNW) 2,331 -0.1 -15.0°
Reaches altitude 10° 03:34:37 10° 292° (WNW) 1,468 -1.1 -14.8°
Maximum altitude 03:37:54 84° 19° (NNE) 412 -3.8 -14.6°
Drops below altitude 10° 03:41:11 10° 110° (ESE) 1,458 -0.9 -14.3°
Sets 03:43:15 0° 111° (ESE) 2,315 0.2 -14.1°
